Regional Weather Roundup
Issued by NWS Boston, MA

Home | Current Version | Previous Version | Text Only | Print | Product List | Glossary On
Versions: 1 2 3 4 5 6 7 8 9 10 11 12 13 14 15 16 17 18 19 20 21 22 23 24 25 26 27 28 29 30 31 32 33 34 35 36 37 38 39 40 41 42 43 44 45 46 47 48 49 50
000
ASUS41 KBOX 062210
RWRBOX

REGIONAL WEATHER ROUNDUP
NATIONAL WEATHER SERVICE TAUNTON MA
600 PM EDT MON JUL 06 2015

NOTE:  "FAIR" INDICATES FEW OR NO CLOUDS BELOW 12,000 FEET WITH NO
SIGNIFICANT WEATHER AND/OR OBSTRUCTIONS TO VISIBILITY.  THE FOLLOWING
OBSERVATION LOCATIONS DO NOT REPORT PRESENT WEATHER...PROVINCETOWN...
SMITHFIELD...BLOCK ISLAND...KEENE...AND OXFORD.

MAZALL-062300-
EASTERN MASSACHUSETTS

CITY           SKY/WX    TMP DP  RH WIND       PRES   REMARKS
BOSTON         MOSUNNY   77  64  64 E7        30.10F
BEVERLY        SUNNY     76  62  62 SE9       30.11S
LAWRENCE       SUNNY     82  61  48 SE8       30.12S
BEDFORD        MOSUNNY   82  58  43 SW5       30.08F
BLUE HILL        N/A     80  63  55 S10       30.12F
NORWOOD        PTSUNNY   83  66  56 S7        30.10F
MARSHFIELD     SUNNY     82  64  54 SW6G17    30.12S
PLYMOUTH       SUNNY     81  61  50 SW10      30.12F
TAUNTON        SUNNY     82  59  45 S8        30.12F
NEW BEDFORD    MOSUNNY   79  65  62 S9        30.12F
$$

MAZALL-062300-
CAPE COD AND THE ISLANDS

CITY           SKY/WX    TMP DP  RH WIND       PRES   REMARKS
FALMOUTH       SUNNY     79  64  61 SW12      30.14F
HYANNIS        SUNNY     77  65  66 S9        30.13F
CHATHAM        SUNNY     74  68  81 SW8       30.15F
PROVINCETOWN   SUNNY     81  21  11 SW8       30.13F
NANTUCKET      SUNNY     72  65  78 SW9       30.15F
MARTHAS VNYRD  MOSUNNY   74  65  73 SW12      30.15F
$$

MAZALL-062300-
CENTRAL AND WESTERN MASSACHUSETTS

CITY           SKY/WX    TMP DP  RH WIND       PRES   REMARKS
WORCESTER      SUNNY     81  57  43 SW6       30.15F
FITCHBURG      SUNNY     83  58  42 S7        30.11F
ORANGE         MOSUNNY   82  58  43 S10       30.11F
SPRINGFIELD    SUNNY     84  61  45 S9        30.08F
WESTFIELD      SUNNY     83  61  47 S8        30.09F
NORTH ADAMS    SUNNY     82  60  47 CALM      30.10F
PITTSFIELD     SUNNY     79  59  50 S8        30.12S
$$

RIZALL-062300-
RHODE ISLAND

CITY           SKY/WX    TMP DP  RH WIND       PRES   REMARKS
PROVIDENCE     PTSUNNY   80  67  64 S12       30.13S
NEWPORT        MOSUNNY   75  64  68 S10       30.14F
BLOCK ISLAND   MOSUNNY   73  63  68 S10       30.15F
SMITHFIELD     SUNNY     81  61  50 SW3       30.13F
WESTERLY       MOSUNNY   75  65  70 S10       30.15S
$$

CTZALL-062300-
CONNECTICUT

CITY           SKY/WX    TMP DP  RH WIND       PRES   REMARKS
BRADLEY INTL   PTSUNNY   82  66  58 S13       30.09F
HARTFORD       MOSUNNY   82  66  58 S12       30.10F
BRIDGEPORT     CLOUDY    78  66  66 S5        30.13F
DANBURY        PTSUNNY   76  63  64 S7        30.15S
GROTON         MOSUNNY   72  65  78 S9        30.13F
NEW HAVEN      CLOUDY    75  67  76 S8        30.14S
CHESTER        NOT AVBL
MERIDEN        MOSUNNY   80  65  59 S10       30.12F
WILLIMANTIC    MOSUNNY   82  65  56 S8        30.12F
OXFORD         PTSUNNY   77  64  65 S10       30.17S
$$

MEZ002-015-021-024-NHZ003-005-008-011-012-014-VTZ005-008-062300-
NORTHERN NEW ENGLAND

CITY           SKY/WX    TMP DP  RH WIND       PRES   REMARKS
PORTLAND ME    MOSUNNY   75  61  61 S8        30.12S
BANGOR ME      MOSUNNY   79  62  56 S14       30.09F
CONCORD NH     MOSUNNY   84  55  36 S6        30.10F
MANCHESTER NH  MOSUNNY   85  53  33 SW5       30.08F
NASHUA NH      MOSUNNY   86  57  36 VRB6      30.10F
PORTSMOUTH NH  MOSUNNY   76  61  59 SE9       30.10S
JAFFREY NH     MOSUNNY   80  57  45 SW3       30.14F
KEENE NH       SUNNY     82  59  44 SW6       30.11S
BURLINGTON VT  SUNNY     82  57  42 S10       30.05F
MT. WASHINGTON PTSUNNY   55  52  88 S12         N/A
$$

NYZ052-076-062300-
EASTERN NEW YORK

CITY           SKY/WX    TMP DP  RH WIND       PRES   REMARKS
ALBANY         MOSUNNY   84  62  47 S6        30.08S
NEW YORK CITY  PTSUNNY   82  65  56 SE8G16    30.11S
$$

ANZALL-062300-
MARINE OBSERVATIONS

STATION/POSITION TIME  TEMP    WIND        PRES    VSBY  WAVE
                       AIR SEA DIR/SP/G                  HT/PER
                 (UTC) (F)     (DEG/KT/KT) (MB)    (MI)  (FT/S)
BOSTON BUOY      2150   69 64  140/ 10/ 12 1019.6F         1/ 8
BUZZARDS BAY     2100          210/ 11/ 12 1021.7F
NANTUCKET SOUND  2150   70 69  220/ 10/ 10 1020.5F         1/ 3
MASS BAY-STELLWA 2104   68 66  130/  8/  8 1019.0F  1 7/8  2/ 8
ISLE OF SHOALS   2200   67     160/ 13/ 13 1019.2F
S OF BLOCK IS    2108      68                N/A           3/ 8
$$

......................KEY.........................
  SKY/WX - SKY CONDITION/PRESENT WEATHER
  TMP    - TEMPERATURE IN FAHRENHEIT
  DWPT   - DEWPOINT IN FAHRENHEIT
  RH     - RELATIVE HUMIDITY IN PERCENT
  WIND   - DIRECTION AND SPEED IN MPH
  PRES   - MEAN SEA LEVEL PRESSURE IN INCHES OF HG
  WCI    - WIND CHILL INDEX
  VSB    - VISIBILITY IN MILES
  HX     - HEAT INDEX
  TC     - TEMPERATURE IN CELSIUS
  VRB    - VARIABLE WIND DIRECTION
  N/A    - NOT AVAILABLE



USA.gov is the U.S. government's official web portal to all federal, state and local government web resources and services.